When you browse on this site, cookies collect data to enhance your experience and personalize the content and advertising you see.
Visit our Privacy Policy to learn more. By continuing to use the site, you agree to this use of cookies and data.
  • en Belgique
  • Liste des pays
  • À 7 jours
  • Température de l'eau
  • Carte satellitaire
  • Carte météo
  • Widgets météo
  • user-avatar
    Se connecter

    Météo par heure à Kavarna

    Ce jour, 18 Juin, Mardi

    Heure Température Précipitation Vent Pression Humidité
    00:00 +21°C° 0 mm 4 m/s 758 mmHg 82%
    01:00 +21°C° 0 mm 5 m/s 758 mmHg 79%
    02:00 +21°C° 0 mm 6 m/s 758 mmHg 76%
    03:00 +21°C° 0 mm 6 m/s 758 mmHg 75%
    04:00 +21°C° 0 mm 6 m/s 758 mmHg 73%
    05:00 +21°C° 0 mm 6 m/s 758 mmHg 72%
    06:00 +23°C° 0 mm 6 m/s 758 mmHg 69%
    07:00 +24°C° 0 mm 6 m/s 759 mmHg 66%
    08:00 +27°C° 0 mm 6 m/s 759 mmHg 63%
    09:00 +28°C° 0 mm 6 m/s 759 mmHg 58%
    10:00 +29°C° 0 mm 5 m/s 759 mmHg 54%
    11:00 +30°C° 0 mm 5 m/s 759 mmHg 50%
    12:00 +30°C° 0 mm 5 m/s 759 mmHg 49%
    13:00 +30°C° 0 mm 5 m/s 759 mmHg 48%
    14:00 +30°C° 0 mm 5 m/s 759 mmHg 47%
    15:00 +29°C° 0 mm 5 m/s 759 mmHg 50%
    16:00 +29°C° 0 mm 5 m/s 758 mmHg 52%
    17:00 +28°C° 0 mm 5 m/s 758 mmHg 55%
    18:00 +27°C° 0 mm 5 m/s 758 mmHg 63%
    19:00 +25°C° 0 mm 4 m/s 758 mmHg 72%
    20:00 +22°C° 0 mm 4 m/s 758 mmHg 81%
    21:00 +22°C° 0 mm 4 m/s 758 mmHg 82%
    22:00 +21°C° 0 mm 4 m/s 759 mmHg 83%
    23:00 +21°C° 0 mm 3 m/s 759 mmHg 84%

    Demain, 19 Juin, Mercredi

    Heure Température Précipitation Vent Pression Humidité
    00:00 +20°C° 0 mm 4 m/s 759 mmHg 84%
    01:00 +20°C° 0 mm 4 m/s 758 mmHg 84%
    02:00 +20°C° 0 mm 4 m/s 758 mmHg 84%
    03:00 +20°C° 0 mm 4 m/s 758 mmHg 82%
    04:00 +20°C° 0 mm 5 m/s 758 mmHg 80%
    05:00 +20°C° 0 mm 6 m/s 758 mmHg 77%
    06:00 +22°C° 0 mm 6 m/s 758 mmHg 71%
    07:00 +24°C° 0 mm 6 m/s 758 mmHg 64%
    08:00 +27°C° 0 mm 6 m/s 758 mmHg 57%
    09:00 +28°C° 0 mm 5 m/s 758 mmHg 53%
    10:00 +29°C° 0 mm 5 m/s 758 mmHg 48%
    11:00 +30°C° 0 mm 4 m/s 758 mmHg 44%
    12:00 +32°C° 0 mm 4 m/s 758 mmHg 44%
    13:00 +32°C° 0 mm 4 m/s 758 mmHg 44%
    14:00 +32°C° 0 mm 5 m/s 758 mmHg 44%
    15:00 +30°C° 0 mm 5 m/s 757 mmHg 47%
    16:00 +30°C° 0 mm 5 m/s 757 mmHg 51%
    17:00 +29°C° 0 mm 5 m/s 756 mmHg 55%
    18:00 +27°C° 0 mm 5 m/s 757 mmHg 65%
    19:00 +25°C° 0 mm 4 m/s 757 mmHg 74%
    20:00 +23°C° 0 mm 4 m/s 757 mmHg 84%
    21:00 +22°C° 0 mm 4 m/s 757 mmHg 84%
    22:00 +22°C° 0 mm 4 m/s 757 mmHg 85%
    23:00 +21°C° 0 mm 3 m/s 757 mmHg 86%

    Après-demain, 20 Juin, Jeudi

    Heure Température Précipitation Vent Pression Humidité
    00:00 +21°C° 0 mm 3 m/s 757 mmHg 86%
    01:00 +21°C° 0 mm 3 m/s 757 mmHg 85%
    02:00 +21°C° 0 mm 3 m/s 757 mmHg 85%
    03:00 +21°C° 0 mm 3 m/s 757 mmHg 83%
    04:00 +21°C° 0 mm 4 m/s 757 mmHg 81%
    05:00 +21°C° 0 mm 5 m/s 757 mmHg 79%
    06:00 +22°C° 0 mm 5 m/s 757 mmHg 74%
    07:00 +24°C° 0 mm 6 m/s 757 mmHg 70%
    08:00 +27°C° 0 mm 6 m/s 757 mmHg 65%
    09:00 +28°C° 0 mm 6 m/s 757 mmHg 61%
    10:00 +29°C° 0 mm 6 m/s 757 mmHg 58%
    11:00 +30°C° 0 mm 5 m/s 757 mmHg 54%
    12:00 +30°C° 0 mm 6 m/s 757 mmHg 54%
    13:00 +32°C° 0 mm 6 m/s 757 mmHg 54%
    14:00 +32°C° 0 mm 6 m/s 757 mmHg 54%
    15:00 +30°C° 0 mm 6 m/s 757 mmHg 55%
    16:00 +30°C° 0 mm 6 m/s 756 mmHg 57%
    17:00 +29°C° 0 mm 5 m/s 756 mmHg 58%
    18:00 +27°C° 0 mm 4 m/s 756 mmHg 67%
    19:00 +26°C° 0 mm 4 m/s 756 mmHg 76%
    20:00 +24°C° 0 mm 3 m/s 757 mmHg 85%
    21:00 +24°C° 0 mm 3 m/s 757 mmHg 86%
    22:00 +24°C° 0 mm 3 m/s 757 mmHg 87%
    23:00 +22°C° 0 mm 3 m/s 757 mmHg 88%

    21 Juin, Vendredi

    Heure Température Précipitation Vent Pression Humidité
    00:00 +22°C° 0 mm 3 m/s 757 mmHg 87%
    01:00 +22°C° 0 mm 4 m/s 757 mmHg 85%
    02:00 +22°C° 0 mm 4 m/s 757 mmHg 84%
    03:00 +22°C° 0 mm 5 m/s 757 mmHg 83%
    04:00 +22°C° 0 mm 5 m/s 757 mmHg 83%
    05:00 +22°C° 0 mm 6 m/s 757 mmHg 83%
    06:00 +24°C° 0 mm 6 m/s 757 mmHg 77%
    07:00 +27°C° 0 mm 6 m/s 758 mmHg 70%
    08:00 +28°C° 0 mm 6 m/s 758 mmHg 64%
    09:00 +29°C° 0 mm 6 m/s 758 mmHg 60%
    10:00 +30°C° 0 mm 6 m/s 758 mmHg 55%
    11:00 +32°C° 0 mm 6 m/s 758 mmHg 50%
    12:00 +32°C° 0 mm 6 m/s 758 mmHg 50%
    13:00 +32°C° 0 mm 6 m/s 758 mmHg 50%
    14:00 +33°C° 0 mm 6 m/s 758 mmHg 50%
    15:00 +32°C° 0 mm 6 m/s 758 mmHg 53%
    16:00 +32°C° 0 mm 5 m/s 757 mmHg 56%
    17:00 +30°C° 0 mm 5 m/s 757 mmHg 59%
    18:00 +29°C° 0 mm 5 m/s 757 mmHg 65%
    19:00 +27°C° 0 mm 4 m/s 757 mmHg 72%
    20:00 +26°C° 0 mm 4 m/s 757 mmHg 78%
    21:00 +25°C° 0 mm 4 m/s 758 mmHg 80%
    22:00 +25°C° 0 mm 4 m/s 758 mmHg 81%
    23:00 +23°C° 0 mm 4 m/s 758 mmHg 83%

    22 Juin, Samedi

    Heure Température Précipitation Vent Pression Humidité
    00:00 +23°C° 0 mm 4 m/s 758 mmHg 82%
    01:00 +23°C° 0 mm 4 m/s 758 mmHg 80%
    02:00 +23°C° 0 mm 4 m/s 758 mmHg 79%
    03:00 +23°C° 0 mm 4 m/s 758 mmHg 77%
    04:00 +23°C° 0 mm 5 m/s 758 mmHg 76%
    05:00 +23°C° 0 mm 5 m/s 758 mmHg 75%
    06:00 +25°C° 0 mm 5 m/s 758 mmHg 69%
    07:00 +27°C° 0 mm 5 m/s 758 mmHg 64%
    08:00 +29°C° 0 mm 5 m/s 758 mmHg 58%
    09:00 +30°C° 0 mm 5 m/s 758 mmHg 54%
    10:00 +32°C° 0 mm 5 m/s 759 mmHg 50%
    11:00 +34°C° 0 mm 4 m/s 759 mmHg 47%
    12:00 +34°C° 0 mm 4 m/s 759 mmHg 46%
    13:00 +34°C° 0 mm 4 m/s 759 mmHg 45%
    14:00 +34°C° 0 mm 4 m/s 758 mmHg 44%
    15:00 +33°C° 0 mm 4 m/s 758 mmHg 49%
    16:00 +31°C° 0 mm 3 m/s 758 mmHg 54%
    17:00 +30°C° 0 mm 3 m/s 758 mmHg 59%
    18:00 +29°C° 0 mm 3 m/s 758 mmHg 63%
    19:00 +27°C° 0 mm 2 m/s 758 mmHg 66%
    20:00 +26°C° 0 mm 2 m/s 759 mmHg 70%
    21:00 +26°C° 0 mm 2 m/s 759 mmHg 71%
    22:00 +25°C° 0 mm 2 m/s 759 mmHg 71%
    23:00 +25°C° 0 mm 3 m/s 759 mmHg 71%

    23 Juin, Dimanche

    Heure Température Précipitation Vent Pression Humidité
    00:00 +25°C° 0 mm 3 m/s 759 mmHg 70%
    01:00 +25°C° 0 mm 3 m/s 759 mmHg 69%
    02:00 +24°C° 0 mm 3 m/s 759 mmHg 68%
    03:00 +24°C° 0 mm 3 m/s 759 mmHg 67%
    04:00 +24°C° 0 mm 3 m/s 759 mmHg 66%
    05:00 +23°C° 0 mm 4 m/s 759 mmHg 65%
    06:00 +26°C° 0 mm 4 m/s 759 mmHg 61%
    07:00 +28°C° 0 mm 4 m/s 759 mmHg 57%
    08:00 +30°C° 0 mm 4 m/s 760 mmHg 53%
    09:00 +32°C° 0 mm 4 m/s 760 mmHg 49%
    10:00 +33°C° 0 mm 4 m/s 760 mmHg 45%
    11:00 +34°C° 0 mm 4 m/s 760 mmHg 42%
    12:00 +34°C° 0 mm 4 m/s 760 mmHg 41%
    13:00 +34°C° 0 mm 4 m/s 760 mmHg 41%
    14:00 +34°C° 0 mm 4 m/s 760 mmHg 41%
    15:00 +34°C° 0 mm 4 m/s 759 mmHg 43%
    16:00 +33°C° 0 mm 4 m/s 759 mmHg 44%
    17:00 +33°C° 0 mm 4 m/s 759 mmHg 46%
    18:00 +30°C° 0 mm 3 m/s 759 mmHg 56%
    19:00 +28°C° 0 mm 2 m/s 759 mmHg 66%
    20:00 +26°C° 0 mm 1 m/s 760 mmHg 76%
    21:00 +25°C° 0 mm 1 m/s 760 mmHg 74%
    22:00 +25°C° 0 mm 1 m/s 760 mmHg 73%
    23:00 +25°C° 0 mm 1 m/s 760 mmHg 72%
    Voir plus